Probability
0 0 0 0 0 0 0 0 0 0 0 0 0 0 0 0 0 0 0 0 0 0 0 0 0 0 0 0 0 0 0 0 0 0 0 0 0 0 0 0 0 3 3
0 0 0 0 0 0 0 0 0 0 0 0 0 0 0 0 0 0 0 0 0 0 0 0 0 0 0 0 0 0 0 0 0 0 0 0 0 0 0 0 0 0 0
0 0 0 0 0 0 0 0 0 0 0 0 0 0 0 0 0 0 0 0 0 0 0 0 0 0 0 0 0 0 0 0 0 0 0 0 0 0 0 0 0 0 0
0 0 0 0 0 0 0 0 0 0 0 0 0 0 0 0 0 0 0 0 0 0 0 0 0 0 0 0 0 0 0 0 0 0 0 0 0 0 0 0 0 0 0
0 0 0 0 0 0 0 0 0 0 0 0 0 0 0 0 0 0 0 0 0 0 0 0 0 0 0 0 0 0 0 0 0 0 0 0 0 0 0 0 0 0 0
0 0 0 0 0 0 0 0 0 0 0 0 0 0 0 0 0 0 0 0 0 0 0 0 0 0 0 0 0 0 0 0 0 0 0 0 0 0 0 0 0 0 0
0 0 0 0 0 0 0 0 0 0 0 0 0 0 0 0 0 0 0 0 0 0 0 0 0 0 0 0 0 0 0 0 0 0 0 0 0 0 0 0 0 0 0
0 0 0 0 0 0 0 0 0 0 0 0 0 0 0 0 0 0 0 0 0 0 0 0 0 0 0 0 0 0 0 0 0 0 0 0 0 0 0 0 0 0 0
0 0 0 0 0 0 0 0 0 0 0 0 0 0 0 0 0 0 0 0 0 0 0 0 0 0 0 0 0 0 0 0 0 0 0 0 0 0 0 0 0 0 0
0 0 0 0 0 0 0 0 0 0 0 0 0 0 0 0 0 0 0 0 0 0 0 0 0 0 0 0 0 0 0 0 0 0 0 0 0 0 0 0 0 0 0
0 0 0 0 0 0 0 0 0 0 0 0 0 0 0 0 0 0 0 0 0 0 0 0 0 0 0 0 0 0 0 0 0 0 0 0 0 0 0 0 0 0 0
0 0 0 0 0 0 0 0 0 0 0 0 0 0 0 0 0 0 0 0 0 0 0 0 0 0 0 0 0 0 0 0 0 0 0 0 0 0 0 0 0 0 0
0 0 0 0 0 0 0 0 0 0 0 0 0 0 0 0 0 0 0 0 0 0 0 0 0 0 0 0 0 0 0 0 0 0 0 0 0 0 0 0 0 0 0
0 0 0 0 0 0 0 0 0 0 0 0 0 0 0 0 0 0 0 0 0 0 0 0 0 0 0 0 0 0 0 0 0 0 0 0 0 0 0 0 0 0 0
0 0 0 0 0 0 0 0 0 0 0 0 0 0 0 0 0 0 0 0 0 0 0 0 0 0 0 0 0 0 0 0 0 0 0 0 0 0 0 0 0 0 0
0 0 0 0 0 0 0 0 0 0 0 0 0 0 0 0 0 0 0 0 0 0 0 0 0 0 0 0 0 0 0 0 0 0 0 0 0 0 0 0 0 0 0
0 0 0 0 0 0 0 0 0 0 0 0 0 0 0 0 0 0 0 0 0 0 0 0 0 0 0 0 0 0 0 0 0 0 0 0 0 0 0 0 0 0 0
0 0 0 0 0 0 0 0 0 0 0 0 0 0 0 0 0 0 0 0 0 0 0 0 0 0 0 0 0 0 0 0 0 0 0 0 0 0 0 0 0 0 0
0 0 0 0 0 0 0 0 0 0 0 0 0 0 0 0 0 0 0 0 0 0 0 0 0 0 0 0 0 0 0 0 0 0 0 0 0 0 0 0 0 0 0
0 0 0 0 0 0 0 0 0 0 0 0 0 0 0 0 0 0 0 0 0 0 0 0 0 0 0 0 0 0 0 0 0 0 0 0 0 0 0 0 0 0 0
0 0 0 0 0 0 0 0 0 0 0 0 0 0 0 0 0 0 0 0 0 0 0 0 0 0 0 0 0 0 0 0 0 0 0 0 0 0 0 0 0 0 0
0 0 0 0 0 0 0 0 0 0 0 0 0 0 0 0 0 0 0 0 0 0 0 0 0 0 0 0 0 0 0 0 0 0 0 0 0 0 0 0 0 0 0
0 0 0 0 0 0 0 0 0 0 0 0 0 0 0 0 0 0 0 0 0 0 0 0 0 0 0 0 0 0 0 0 0 0 0 0 0 0 0 0 0 0 0
0 0 0 0 0 0 0 0 0 0 0 0 0 0 0 0 0 0 0 0 0 0 0 0 0 0 0 0 0 0 0 0 0 0 0 0 0 0 0 0 0 0 0
0 0 0 0 0 0 0 0 0 0 0 0 0 0 0 0 0 0 0 0 0 0 0 0 0 0 0 0 0 0 0 0 0 0 0 0 0 0 0 0 0 0 0
0 0 0 0 0 0 0 0 0 0 0 0 0 0 0 0 0 0 0 0 0 0 0 0 0 0 0 0 0 0 0 0 0 0 0 0 0 0 0 0 0 0 0
Height
5886 5887 5889 5890 5891 5892 5893 5894 5894 5894 5895 5895 5895 5895 5895 5895 5894 5894 5893 5893 5892 5891 5890 5889 5887 5886 5885 5883 5882 5881 5879 5878 5877 5876 5875 5873 5872 5871 5870 5868 5867 5866 5865
5884 5885 5887 5888 5889 5890 5891 5892 5892 5893 5893 5893 5894 5894 5893 5893 5893 5892 5892 5891 5891 5890 5889 5888 5887 5885 5884 5883 5881 5880 5879 5878 5877 5876 5874 5873 5872 5870 5869 5867 5866 5865 5864
5881 5883 5885 5886 5887 5888 5889 5890 5891 5891 5891 5892 5892 5892 5892 5891 5891 5891 5890 5890 5889 5888 5888 5886 5885 5884 5883 5882 5881 5880 5879 5877 5876 5875 5874 5873 5871 5870 5868 5866 5865 5863 5862
5879 5880 5882 5883 5885 5886 5887 5888 5888 5889 5890 5890 5890 5890 5890 5890 5890 5889 5889 5888 5887 5887 5886 5885 5884 5883 5882 5881 5880 5878 5877 5876 5875 5874 5873 5871 5870 5868 5867 5865 5864 5862 5861
5876 5878 5880 5881 5882 5883 5884 5885 5886 5887 5887 5888 5888 5888 5888 5888 5888 5888 5887 5887 5886 5885 5885 5884 5883 5882 5881 5880 5878 5877 5876 5875 5874 5872 5871 5870 5868 5867 5865 5864 5862 5861 5859
5874 5876 5877 5879 5880 5881 5882 5883 5884 5885 5885 5886 5886 5886 5886 5886 5886 5886 5886 5885 5884 5884 5883 5882 5881 5880 5879 5878 5877 5876 5874 5873 5872 5871 5869 5868 5866 5865 5863 5862 5860 5858 5857
5872 5873 5875 5876 5877 5878 5879 5880 5881 5882 5883 5883 5884 5884 5884 5884 5884 5884 5883 5883 5882 5881 5881 5880 5879 5878 5877 5876 5875 5874 5872 5871 5870 5869 5867 5866 5864 5863 5861 5859 5857 5856 5854
5869 5871 5872 5873 5875 5876 5877 5878 5879 5880 5880 5881 5881 5881 5882 5882 5882 5881 5881 5880 5880 5879 5878 5877 5876 5876 5875 5874 5873 5871 5870 5869 5867 5866 5865 5863 5862 5860 5859 5857 5855 5853 5852
5866 5868 5869 5871 5872 5873 5874 5875 5876 5877 5878 5878 5878 5879 5879 5879 5879 5879 5878 5877 5877 5876 5875 5875 5874 5873 5872 5871 5870 5869 5868 5866 5865 5863 5862 5861 5859 5858 5856 5854 5853 5851 5849
5864 5865 5866 5868 5869 5870 5871 5872 5873 5874 5875 5875 5875 5876 5876 5876 5876 5875 5875 5874 5874 5873 5873 5872 5871 5870 5869 5868 5867 5866 5865 5863 5862 5861 5859 5857 5856 5855 5853 5852 5850 5848 5846
5861 5863 5864 5865 5866 5867 5868 5869 5870 5871 5872 5872 5872 5873 5873 5873 5873 5872 5872 5871 5870 5870 5869 5868 5867 5867 5866 5865 5863 5862 5861 5860 5858 5857 5856 5854 5853 5851 5850 5848 5847 5845 5843
5859 5860 5861 5862 5863 5864 5865 5866 5867 5868 5869 5869 5869 5869 5869 5869 5869 5869 5868 5867 5867 5866 5865 5865 5864 5863 5862 5861 5859 5858 5857 5856 5855 5853 5852 5850 5849 5847 5846 5844 5842 5841 5839
5856 5857 5858 5859 5860 5861 5862 5863 5864 5865 5865 5865 5866 5866 5865 5865 5865 5865 5864 5863 5863 5862 5861 5860 5859 5858 5857 5856 5855 5854 5853 5852 5850 5849 5847 5846 5844 5843 5841 5840 5838 5836 5834
5853 5855 5856 5857 5858 5859 5859 5860 5861 5861 5861 5862 5862 5862 5861 5861 5861 5860 5860 5859 5858 5858 5857 5856 5855 5854 5853 5852 5851 5849 5848 5847 5846 5844 5843 5841 5840 5838 5836 5834 5832 5831 5829
5850 5852 5853 5853 5854 5855 5856 5856 5857 5857 5857 5858 5858 5858 5857 5857 5857 5856 5855 5855 5854 5853 5852 5851 5850 5849 5848 5847 5846 5845 5843 5842 5840 5839 5837 5836 5834 5832 5831 5829 5827 5825 5823
5847 5848 5849 5850 5851 5851 5852 5852 5853 5853 5853 5853 5854 5853 5853 5853 5852 5852 5851 5850 5849 5848 5847 5846 5845 5844 5843 5842 5840 5839 5838 5836 5835 5833 5832 5830 5828 5826 5824 5822 5820 5818 5816
5844 5844 5845 5846 5847 5848 5848 5848 5848 5848 5849 5849 5849 5849 5849 5848 5848 5847 5846 5845 5844 5843 5842 5841 5840 5839 5837 5836 5835 5833 5832 5831 5829 5827 5825 5824 5822 5819 5818 5815 5813 5811 5808
5840 5841 5841 5842 5843 5844 5844 5844 5844 5845 5845 5845 5845 5844 5844 5843 5843 5842 5841 5840 5839 5838 5837 5836 5834 5833 5832 5830 5829 5827 5826 5824 5823 5821 5819 5817 5815 5812 5810 5808 5806 5803 5801
5836 5837 5838 5838 5839 5840 5840 5840 5840 5840 5840 5840 5840 5839 5839 5838 5837 5836 5836 5835 5834 5833 5832 5830 5829 5827 5826 5824 5823 5821 5819 5818 5816 5814 5812 5810 5808 5805 5803 5801 5798 5795 5792
5832 5833 5833 5834 5834 5835 5835 5835 5836 5835 5835 5835 5835 5834 5833 5833 5832 5831 5830 5829 5828 5827 5825 5824 5823 5821 5819 5818 5816 5814 5813 5811 5809 5807 5804 5802 5800 5797 5794 5792 5789 5786 5783
5828 5828 5828 5829 5830 5830 5830 5830 5830 5830 5830 5830 5829 5828 5827 5827 5826 5825 5824 5823 5821 5820 5819 5818 5816 5814 5813 5811 5809 5807 5805 5803 5801 5799 5796 5794 5791 5788 5786 5783 5780 5777 5774
5823 5824 5824 5824 5824 5825 5825 5825 5825 5825 5824 5824 5823 5822 5821 5820 5819 5818 5817 5816 5814 5813 5812 5810 5809 5807 5805 5803 5801 5799 5797 5795 5793 5791 5788 5785 5782 5779 5776 5773 5770 5766 5763
5818 5819 5819 5819 5819 5819 5819 5819 5819 5818 5818 5818 5817 5816 5815 5814 5813 5811 5810 5809 5807 5806 5804 5803 5801 5799 5797 5795 5793 5791 5789 5786 5784 5781 5779 5776 5773 5769 5766 5762 5759 5755 5751
5813 5813 5813 5813 5813 5813 5813 5813 5812 5812 5811 5811 5810 5809 5808 5807 5805 5804 5803 5801 5800 5798 5796 5795 5793 5791 5789 5787 5785 5782 5780 5777 5774 5772 5769 5766 5762 5759 5755 5751 5747 5743 5739
5807 5807 5807 5807 5807 5806 5806 5806 5805 5805 5804 5803 5803 5802 5800 5799 5798 5796 5795 5793 5792 5790 5788 5786 5784 5782 5780 5778 5775 5773 5770 5767 5765 5762 5759 5755 5751 5747 5743 5739 5735 5731 5726
5800 5801 5800 5800 5800 5800 5799 5799 5798 5797 5797 5796 5795 5794 5792 5791 5790 5788 5786 5784 5783 5781 5779 5777 5775 5773 5771 5768 5765 5763 5760 5757 5753 5750 5747 5744 5739 5735 5731 5727 5722 5718 5713
Wind_Speed
11 10 10 10 10 9 8 8 7 7 6 5 5 5 4 4 4 3 3 3 4 4 5 5 6 6 6 6 6 6 5 5 5 5 5 5 5 6 6 6 5 5 5
11 11 11 10 11 10 9 9 8 7 7 6 6 6 5 5 5 4 4 4 4 5 5 6 6 6 6 6 6 5 5 5 5 5 6 6 6 7 7 7 6 5 6
12 11 11 11 11 11 10 9 9 8 8 7 6 6 5 5 5 5 5 5 5 6 6 6 6 6 6 6 6 6 6 5 5 6 6 7 7 7 7 6 6 6 7
13 12 11 11 12 12 11 10 10 10 9 8 7 6 6 5 5 5 6 6 6 6 7 7 7 7 7 7 6 6 7 7 7 7 7 8 8 8 7 7 8 8 8
13 12 11 12 12 12 12 11 11 11 10 9 8 7 7 6 5 6 6 6 6 7 7 7 7 7 7 8 8 8 8 8 8 8 8 8 9 8 8 8 9 9 9
13 12 12 12 12 12 12 11 11 10 10 10 9 9 8 7 7 7 7 7 8 8 7 8 8 8 8 8 8 8 9 8 9 9 9 9 9 9 9 10 9 10 10
13 12 12 12 12 11 12 11 11 11 11 10 10 10 9 9 9 8 8 8 9 9 9 9 9 9 9 9 9 9 9 9 10 10 10 10 10 10 10 11 11 11 11
13 12 12 12 12 12 12 12 11 11 11 11 11 11 10 10 10 10 9 9 10 11 11 11 10 10 10 9 9 10 10 11 11 11 11 11 11 11 11 11 12 12 12
12 12 11 11 11 11 12 12 12 12 12 12 12 12 12 11 11 11 11 11 11 11 11 11 11 11 11 10 11 11 11 12 12 12 12 12 12 12 12 12 13 13 13
11 11 11 11 11 11 12 12 12 12 12 12 12 12 12 12 12 12 11 11 12 12 12 13 13 13 13 12 12 13 13 13 14 14 13 14 14 14 14 14 14 14 14
11 11 11 11 12 12 12 12 13 13 12 12 12 13 13 13 13 13 13 12 12 13 13 14 14 14 14 14 14 14 15 15 15 15 15 15 15 16 16 16 15 15 16
11 12 12 12 12 12 12 12 13 13 13 13 13 13 14 14 14 14 15 14 14 15 15 15 16 16 16 15 16 16 16 16 16 16 16 16 17 17 18 17 17 18 18
10 11 11 12 12 12 13 13 13 13 13 13 14 14 15 15 16 16 15 15 16 16 16 16 16 16 17 17 17 17 17 18 17 17 18 18 18 19 19 19 20 20 20
9 10 11 11 12 12 13 13 14 14 14 14 15 15 16 16 16 16 16 16 16 16 16 16 16 16 17 18 18 18 18 19 19 19 19 20 20 20 21 21 22 22 23
10 11 11 12 13 13 13 14 14 15 15 15 15 16 16 16 16 16 16 16 16 16 16 17 17 18 18 19 19 19 20 20 20 21 21 21 22 22 23 23 23 24 24
12 13 13 13 13 13 13 14 14 16 16 15 15 16 16 16 16 16 16 17 17 17 18 18 18 19 19 20 20 20 21 21 22 22 23 23 23 24 24 25 26 26 26
12 12 12 13 14 13 14 14 15 15 15 15 16 17 17 17 17 17 18 18 19 19 19 20 20 20 20 20 21 21 22 23 23 23 24 24 24 25 26 27 27 28 28
12 12 13 13 13 14 14 15 15 16 16 17 17 17 18 18 18 18 19 19 19 19 19 20 20 21 21 22 22 23 23 24 24 25 25 25 26 27 27 28 29 30 30
14 13 14 15 15 14 15 15 16 16 17 18 18 19 19 19 19 19 20 20 20 20 21 21 21 22 23 23 24 24 25 25 25 26 26 27 28 29 29 30 31 31 32
13 14 15 16 16 15 16 16 16 17 17 18 19 20 20 20 20 21 21 22 22 22 23 23 23 24 24 25 25 25 26 26 27 27 28 28 29 30 31 32 33 33 34
13 14 15 16 16 17 17 18 18 18 18 19 19 20 20 21 21 22 23 24 24 24 24 24 25 25 25 25 26 27 27 28 28 28 29 30 31 32 33 34 35 35 36
16 16 17 17 18 19 19 19 18 19 20 20 21 22 22 23 23 23 24 24 25 25 26 26 26 27 27 27 28 29 29 30 30 30 31 32 33 34 35 36 37 38 39
18 18 19 19 19 20 20 20 20 21 21 22 22 23 23 24 24 25 25 25 26 26 27 27 27 28 28 29 29 30 31 31 32 32 33 34 35 36 37 38 39 40 41
20 20 20 20 21 21 21 22 22 23 23 24 24 24 24 25 26 26 27 27 28 28 28 28 28 29 30 30 31 32 33 34 34 35 36 37 38 38 39 40 41 42 43
21 21 21 21 21 22 22 23 24 24 25 26 26 26 26 27 27 28 28 29 29 30 30 30 30 30 31 32 33 34 35 36 37 38 38 39 40 41 42 42 43 44 45
22 22 22 23 23 24 24 25 26 26 27 27 28 28 28 29 29 29 29 29 30 30 31 31 32 32 33 33 35 36 37 38 39 40 41 42 43 43 44 44 45 46 47
Wind_Direction
215 215 216 216 216 220 227 232 237 239 239 240 245 248 257 263 268 281 299 313 321 328 334 338 342 345 346 349 353 353 355 356 349 349 351 351 346 345 342 333 325 316 303
216 219 221 214 218 221 229 233 236 240 241 241 244 249 259 268 264 272 285 294 304 313 322 325 329 333 334 336 341 344 343 347 347 346 346 347 345 342 337 335 333 323 311
216 218 221 219 218 222 227 230 237 239 240 240 243 250 257 267 269 274 279 284 294 305 312 318 320 323 324 324 328 329 328 328 332 336 335 336 337 334 334 334 331 325 316
216 219 222 222 222 226 230 233 236 236 237 240 246 252 257 260 272 280 284 287 291 300 305 312 315 315 317 318 318 319 320 320 321 323 324 326 326 327 331 328 323 321 316
217 222 225 225 226 230 233 236 233 234 238 242 246 252 253 254 267 279 285 289 293 296 301 308 312 313 313 312 313 315 314 313 315 317 318 320 321 322 324 322 319 317 314
215 221 225 225 227 231 234 236 236 237 241 243 246 253 250 254 264 274 281 287 292 295 297 303 306 309 310 310 309 310 310 309 309 310 311 312 312 312 314 315 314 311 309
214 221 225 226 230 232 233 235 237 239 242 246 247 251 251 256 262 270 279 285 289 292 295 296 299 301 303 306 308 308 307 307 306 306 307 308 308 307 308 309 310 309 308
215 220 226 229 231 231 231 232 235 238 241 245 248 250 252 257 264 270 276 281 286 290 292 292 294 295 296 299 301 304 305 304 303 304 305 306 307 307 308 309 310 310 309
214 219 225 231 232 230 231 231 236 239 243 247 249 250 251 257 264 270 275 279 283 287 287 289 291 291 291 293 295 298 300 301 301 301 302 302 304 305 306 307 309 309 308
221 222 225 232 232 232 232 233 239 244 245 248 248 251 255 257 263 269 274 278 282 286 286 285 287 287 288 290 292 293 294 296 298 299 298 298 300 301 302 304 306 307 308
227 223 226 230 232 233 233 240 244 246 246 249 249 253 256 258 262 268 274 279 283 285 285 284 285 285 286 288 289 291 292 293 294 294 294 294 296 297 299 301 301 302 304
228 226 229 232 234 234 240 245 247 250 250 251 252 258 260 261 265 270 274 278 282 284 284 282 282 284 287 287 288 290 291 291 292 292 292 292 293 295 296 298 298 299 300
229 228 228 232 234 238 242 245 249 252 255 254 258 262 264 266 267 270 273 275 279 281 282 282 283 284 286 287 289 289 289 290 290 291 291 292 293 294 295 296 296 297 297
233 230 228 232 237 240 244 248 252 255 257 257 261 262 265 268 269 271 273 275 278 279 281 282 282 283 285 286 286 286 286 288 289 289 290 290 292 293 293 293 294 294 295
241 238 236 239 243 246 249 252 255 257 259 260 262 263 266 268 271 273 273 276 278 279 280 282 282 283 284 284 285 286 285 286 287 288 290 291 291 291 292 292 293 293 294
243 243 241 244 249 252 254 256 260 260 260 260 263 265 268 270 271 272 274 276 277 279 281 282 283 285 286 286 286 286 286 286 287 288 289 290 291 291 291 292 293 293 293
248 243 245 247 249 253 257 260 262 261 260 262 266 268 269 271 271 272 275 278 280 281 281 282 283 284 285 286 286 286 287 288 288 290 290 291 291 291 291 291 292 293 293
251 249 252 252 251 255 259 261 259 260 262 264 268 270 271 273 272 274 277 279 282 283 283 283 284 285 285 287 288 289 291 292 291 291 290 290 290 291 291 292 293 293 293
254 254 255 256 257 259 261 262 260 262 265 267 270 272 274 275 275 276 278 280 282 283 283 284 286 287 287 288 288 288 290 291 290 290 290 290 290 291 292 293 294 294 294
258 259 258 258 259 263 265 266 263 266 268 270 271 273 276 277 277 278 279 280 281 282 283 284 286 287 287 287 287 288 289 290 291 292 292 293 292 292 293 294 294 294 294
268 268 266 263 262 265 266 267 266 268 270 270 271 273 275 277 278 278 279 280 281 282 283 284 286 287 288 288 288 288 289 291 292 292 293 294 293 293 293 294 294 293 294
269 270 270 269 267 266 267 268 268 269 269 270 272 276 278 279 279 280 280 281 281 281 282 284 285 286 287 287 288 288 289 290 291 292 293 293 293 293 293 294 293 293 293
270 271 271 272 271 269 268 269 270 271 272 273 276 278 279 280 280 281 281 281 283 284 284 285 286 286 287 287 288 288 289 290 290 291 293 294 294 294 294 294 294 294 294
272 272 273 273 273 272 270 270 270 272 275 277 277 278 279 280 280 281 283 284 284 285 285 285 285 286 286 287 287 288 289 290 290 292 293 294 295 295 294 293 294 294 295
272 273 273 273 273 274 273 273 274 275 276 277 279 280 281 282 282 283 283 284 285 285 285 285 285 285 286 287 288 289 290 291 291 292 294 295 295 295 295 294 294 295 295
273 273 273 274 275 275 274 275 276 278 279 279 279 280 282 282 282 284 284 285 286 286 286 286 286 286 286 288 289 290 290 290 291 291 293 294 294 294 294 295 295 295 295